Regional Weather Roundup
Issued by NWS

Home | Current Version | Previous Version | Text Only | Print | Product List | Glossary Off
Versions: 1 2 3 4 5 6 7 8 9 10 11 12 13 14 15 16 17 18 19 20 21 22 23 24 25 26 27 28 29 30 31 32 33 34 35 36 37 38 39 40 41 42 43 44 45 46 47 48 49 50

000
ASUS43 KDTX 301301
RWRMI
MICHIGAN HOURLY REGIONAL WEATHER ROUNDUP
NATIONAL WEATHER SERVICE DETROIT/PONTIAC MI
900 AM EDT SAT JUL 30 2016

NOTE: "FAIR" INDICATES FEW OR NO CLOUDS BELOW 12,000 FEET WITH NO
SIGNIFICANT WEATHER AND/OR OBSTRUCTION TO VISIBILITY.

MIZ047>049-052>055-059>063-066>070-074>076-081>083-301400-
SOUTHEAST LOWER MICHIGAN

CITY           SKY/WX    TMP DP  RH WIND       PRES   REMARKS
ADRIAN         CLOUDY    69  65  86 NE8       29.98R
ALMA           CLOUDY    66  64  96 NE3       30.03R
ANN ARBOR      CLOUDY    68  67  96 NW6       29.98R
BAD AXE        CLOUDY    65  64  98 E6        30.05R
CARO           RAIN      64  63  97 NE3       30.02S
DETROIT CITY   PTSUNNY   70  66  87 NE9       29.98R
DETROIT        CLOUDY    73  64  73 NE8       29.97R
FLINT          CLOUDY    68  64  87 NE7       30.01S
GROSSE ILE     CLOUDY    73  66  77 NE10      29.95R
HILLSDALE      CLOUDY    65  62  89 NE6       29.98S
HOWELL         HVY RAIN  64  62  96 NE6       30.01R VSB 3/4

CITY           SKY/WX    TMP DP  RH WIND       PRES   REMARKS
JACKSON        HVY RAIN  64  63  96 VRB7      29.99R FOG
LAMBERTVILLE   PTSUNNY   72  67  84 NE6       29.96R
LANSING        CLOUDY    65  62  90 NE7       30.01R
LAPEER         LGT RAIN  67  62  84 NE6       30.02R
MASON          CLOUDY    66  60  81 E9        30.00R
MONROE         CLOUDY    73  69  88 NE7       29.94S
PONTIAC        CLOUDY    70  60  70 NE8       29.99R
PORT HOPE        N/A     68  63  84 E14       30.03S
PORT HURON     CLOUDY    68  61  77 NE9       30.00S
TRI CITIES     CLOUDY    66  64  93 E8        30.02F
MIDLAND        CLOUDY    67  60  79 CALM      30.02S
TROY           CLOUDY    71  60  67 NE10      30.01R
SAGINAW HB     LGT RAIN  64  63  94 NE8       30.02S
$$
MIZ043>046-050>051-056>058-064>065-071>073-077>080-301400-
SOUTHWEST LOWER MICHIGAN

CITY           SKY/WX    TMP DP  RH WIND       PRES   REMARKS
BATTLE CREEK   CLOUDY    64  63  96 NE6       29.99R
BENTON HARBOR  CLOUDY    65  61  87 NE7       29.99R
BIG RAPIDS     SUNNY     66  61  85 NE10      30.04R
COLDWATER      CLOUDY    65  63  91 NE7       29.98R
FREMONT        FAIR      64  62  91 NE6       30.01R
HOLLAND        CLOUDY    65  62  90 CALM      30.01R
GRAND RAPIDS   CLOUDY    65  61  87 E9        30.01R
IONIA          CLOUDY    63  61  93 NE8       30.00S
KALAMAZOO      TSTM      63  61  93 NE12      29.98F VSB 1
LUDINGTON      SUNNY     67  58  71 E9        30.03R
MARSHALL       HVY RAIN  64  63  96 E6        29.99R
MOUNT PLEASANT SUNNY     68  60  75 NE8       30.02R
MUSKEGON       PTSUNNY   67  62  84 E10       30.01R
SOUTH HAVEN    HVY RAIN  63  63  98 E6        30.00R VSB 1/4
$$
MIZ016>042-301400-
NORTHERN LOWER MICHIGAN

CITY           SKY/WX    TMP DP  RH WIND       PRES   REMARKS
ALPENA         SUNNY     70  60  70 NE10      30.09S
BEAVER ISLAND  SUNNY     70  61  72 NE3       30.10R
BELLAIRE       SUNNY     64  54  70 CALM      30.09R
CADILLAC       SUNNY     65  57  73 E12       30.06S
CHARLEVOIX     SUNNY     68  55  62 E7        30.12R
FRANKFORT      SUNNY     68  55  63 E7        30.07S
GAYLORD        SUNNY     66  54  65 NE10      30.11R
GRAYLING       SUNNY     67  57  69 E9        30.09S
HARBOR SPRINGS SUNNY     67  56  70 E5        30.10R
HOUGHTON LAKE  SUNNY     65  57  75 NE12      30.08S
MANISTEE       SUNNY     67  56  67 NE12      30.04S
OSCODA         MOSUNNY   71  60  67 NE15      30.06S
PELLSTON       SUNNY     68  57  68 NE5       30.10S
ROGERS CITY    SUNNY     70  59  68 E9        30.11R
TRAVERSE CITY  MOSUNNY   67  55  65 NE7       30.07S
$$
MIZ007>008-015-301400-
EASTERN UPPER MICHIGAN

CITY           SKY/WX    TMP DP  RH WIND       PRES   REMARKS
KINROSS        SUNNY     65  58  78 E3        30.11S
MACKINAC ISLAN SUNNY     68  59  73 NE5       30.10S
S. S. MARIE    SUNNY     65  58  78 E5        30.10S
$$
MIZ004>006-011>014-085-301400-
CENTRAL UPPER MICHIGAN

CITY           SKY/WX    TMP DP  RH WIND       PRES   REMARKS
MANISTIQUE     SUNNY     65  60  84 CALM      30.10S
ESCANABA         N/A    N/A N/A N/A MISG        N/A
MENOMINEE        N/A    N/A N/A N/A NE6       30.09
SAWYER-GWINN   MOSUNNY   59  54  82 CALM      30.12R
$$
MIZ001>003-009>011-084-301400-
WESTERN UPPER MICHIGAN

CITY           SKY/WX    TMP DP  RH WIND       PRES   REMARKS
IRON MOUNTAIN  SUNNY     62  54  74 N5        30.10R
HOUGHTON       SUNNY     64  59  83 E7        30.10R
COPPER HARBOR    N/A     67  56  67 SW3       30.09R
IRONWOOD       MOSUNNY   64  55  72 CALM      30.07S
$$

ABBREVIATIONS USED IN REMARKS
   TC - TEMPERATURE IN CELSIUS
  WCI - WIND CHILL INDEX
   HX - HEAT INDEX
  VSB - VISIBILITY




USA.gov is the U.S. government's official web portal to all federal, state and local government web resources and services.